When you browse on this site, cookies collect data to enhance your experience and personalize the content and advertising you see.
Visit our Privacy Policy to learn more. By continuing to use the site, you agree to this use of cookies and data.
  • Em Portugal
  • Lista de países
  • Para 7 dias
  • Temperatura da água
  • Mapas de satélite
  • Mapa do tempo
  • Widgets de tempo
  • user-avatar
    Iniciar Sessão

    Previsão horária em Seversk

    Hoje, 11 Dezembro, Terça-feira

    Tempo Temperatura Precipitação Vento Pressão Humidade
    00:00 +2°C° 0.4 mm 3 m/s 749 mmHg 96%
    01:00 +2°C° 0.3 mm 3 m/s 749 mmHg 97%
    02:00 +2°C° 0.3 mm 3 m/s 750 mmHg 97%
    03:00 +3°C° 0 mm 1 m/s 750 mmHg 98%
    04:00 +3°C° 0.1 mm 1 m/s 750 mmHg 98%
    05:00 +2°C° 0.1 mm 2 m/s 750 mmHg 97%
    06:00 +2°C° 0.1 mm 2 m/s 750 mmHg 97%
    07:00 +3°C° 0 mm 2 m/s 750 mmHg 97%
    08:00 +3°C° 0 mm 2 m/s 750 mmHg 97%
    09:00 +3°C° 0 mm 2 m/s 750 mmHg 97%
    10:00 +2°C° 0 mm 3 m/s 750 mmHg 97%
    11:00 +2°C° 0 mm 3 m/s 750 mmHg 97%
    12:00 +2°C° 0 mm 3 m/s 750 mmHg 97%
    13:00 +1°C° 0 mm 4 m/s 750 mmHg 97%
    14:00 +1°C° 0 mm 4 m/s 750 mmHg 96%
    15:00 +1°C° 0 mm 4 m/s 749 mmHg 95%
    16:00 +1°C° 0.4 mm 4 m/s 750 mmHg 95%
    17:00 0°C° 0.4 mm 4 m/s 750 mmHg 95%
    18:00 0°C° 0.4 mm 4 m/s 750 mmHg 94%
    19:00 0°C° 1 mm 5 m/s 750 mmHg 94%
    20:00 +1°C° 1 mm 6 m/s 749 mmHg 94%
    21:00 +1°C° 1 mm 6 m/s 749 mmHg 94%
    22:00 +1°C° 0.7 mm 6 m/s 749 mmHg 94%
    23:00 0°C° 0.7 mm 7 m/s 748 mmHg 93%

    Amanhã, 12 Dezembro, Quarta-feira

    Tempo Temperatura Precipitação Vento Pressão Humidade
    00:00 0°C° 0.7 mm 7 m/s 748 mmHg 93%
    01:00 0°C° 0.1 mm 7 m/s 748 mmHg 93%
    02:00 0°C° 0.1 mm 7 m/s 747 mmHg 93%
    03:00 0°C° 0.1 mm 7 m/s 747 mmHg 93%
    04:00 +2°C° 0.1 mm 7 m/s 747 mmHg 93%
    05:00 +2°C° 0.1 mm 7 m/s 746 mmHg 93%
    06:00 +2°C° 0.1 mm 7 m/s 746 mmHg 92%
    07:00 +2°C° 0.1 mm 7 m/s 746 mmHg 91%
    08:00 +2°C° 0.1 mm 7 m/s 745 mmHg 90%
    09:00 +3°C° 0.1 mm 7 m/s 745 mmHg 89%
    10:00 +3°C° 0.1 mm 7 m/s 745 mmHg 88%
    11:00 +3°C° 0.1 mm 7 m/s 746 mmHg 88%
    12:00 +3°C° 0.1 mm 7 m/s 746 mmHg 87%
    13:00 +3°C° 0.1 mm 7 m/s 746 mmHg 87%
    14:00 +2°C° 0.1 mm 6 m/s 746 mmHg 87%
    15:00 +2°C° 0.1 mm 6 m/s 746 mmHg 87%
    16:00 +2°C° 0.2 mm 6 m/s 747 mmHg 87%
    17:00 +2°C° 0.2 mm 5 m/s 747 mmHg 87%
    18:00 +2°C° 0.2 mm 5 m/s 748 mmHg 87%
    19:00 +1°C° 0.1 mm 5 m/s 748 mmHg 87%
    20:00 +1°C° 0.1 mm 5 m/s 748 mmHg 87%
    21:00 +1°C° 0.1 mm 5 m/s 749 mmHg 87%
    22:00 +1°C° 0 mm 5 m/s 749 mmHg 86%
    23:00 +1°C° 0 mm 5 m/s 750 mmHg 85%

    Depois de amanhã, 13 Dezembro, Quinta-feira

    Tempo Temperatura Precipitação Vento Pressão Humidade
    00:00 0°C° 0 mm 5 m/s 750 mmHg 85%
    01:00 0°C° 0 mm 5 m/s 751 mmHg 84%
    02:00 0°C° 0 mm 4 m/s 752 mmHg 83%
    03:00 0°C° 0 mm 4 m/s 752 mmHg 83%
    04:00 0°C° 0 mm 4 m/s 753 mmHg 82%
    05:00 0°C° 0 mm 4 m/s 753 mmHg 82%
    06:00 -1°C° 0 mm 4 m/s 753 mmHg 82%
    07:00 -1°C° 0 mm 4 m/s 754 mmHg 83%
    08:00 -1°C° 0 mm 4 m/s 755 mmHg 83%
    09:00 0°C° 0 mm 3 m/s 756 mmHg 84%
    10:00 -1°C° 0 mm 4 m/s 756 mmHg 81%
    11:00 0°C° 0 mm 4 m/s 756 mmHg 78%
    12:00 0°C° 0 mm 4 m/s 757 mmHg 75%
    13:00 0°C° 0 mm 4 m/s 757 mmHg 74%
    14:00 +1°C° 0 mm 4 m/s 757 mmHg 72%
    15:00 +2°C° 0 mm 3 m/s 757 mmHg 70%
    16:00 +1°C° 0 mm 3 m/s 758 mmHg 73%
    17:00 +1°C° 0 mm 3 m/s 758 mmHg 76%
    18:00 0°C° 0 mm 3 m/s 759 mmHg 79%
    19:00 0°C° 0 mm 3 m/s 759 mmHg 81%
    20:00 0°C° 0 mm 3 m/s 759 mmHg 82%
    21:00 0°C° 0 mm 3 m/s 760 mmHg 84%
    22:00 0°C° 0 mm 3 m/s 760 mmHg 84%
    23:00 0°C° 0 mm 3 m/s 760 mmHg 85%

    14 Dezembro, Sexta-feira

    Tempo Temperatura Precipitação Vento Pressão Humidade
    00:00 0°C° 0 mm 3 m/s 760 mmHg 86%
    01:00 0°C° 0 mm 3 m/s 760 mmHg 86%
    02:00 0°C° 0 mm 3 m/s 761 mmHg 87%
    03:00 0°C° 0 mm 3 m/s 761 mmHg 87%
    04:00 0°C° 0 mm 3 m/s 761 mmHg 87%
    05:00 -1°C° 0 mm 3 m/s 761 mmHg 87%
    06:00 -1°C° 0 mm 3 m/s 761 mmHg 88%
    07:00 -1°C° 0 mm 3 m/s 761 mmHg 88%
    08:00 -1°C° 0 mm 3 m/s 761 mmHg 88%
    09:00 -1°C° 0 mm 3 m/s 761 mmHg 89%
    10:00 0°C° 0 mm 3 m/s 762 mmHg 85%
    11:00 +1°C° 0 mm 3 m/s 762 mmHg 82%
    12:00 +2°C° 0 mm 3 m/s 762 mmHg 78%
    13:00 +2°C° 0 mm 3 m/s 762 mmHg 79%
    14:00 +2°C° 0 mm 3 m/s 762 mmHg 79%
    15:00 +3°C° 0 mm 2 m/s 762 mmHg 80%
    16:00 +2°C° 0 mm 2 m/s 762 mmHg 83%
    17:00 +2°C° 0 mm 2 m/s 762 mmHg 86%
    18:00 +1°C° 0 mm 2 m/s 762 mmHg 89%
    19:00 +1°C° 0 mm 2 m/s 762 mmHg 89%
    20:00 -1°C° 0 mm 2 m/s 763 mmHg 90%
    21:00 -1°C° 0 mm 2 m/s 763 mmHg 90%
    22:00 -1°C° 0 mm 2 m/s 763 mmHg 90%
    23:00 +1°C° 0 mm 1 m/s 763 mmHg 91%

    15 Dezembro, Sábado

    Tempo Temperatura Precipitação Vento Pressão Humidade
    00:00 +1°C° 0 mm 1 m/s 763 mmHg 91%
    01:00 +1°C° 0 mm 1 m/s 763 mmHg 91%
    02:00 +1°C° 0 mm 1 m/s 764 mmHg 91%
    03:00 +1°C° 0 mm 1 m/s 764 mmHg 91%
    04:00 +1°C° 0 mm 1 m/s 764 mmHg 91%
    05:00 +1°C° 0 mm 1 m/s 764 mmHg 91%
    06:00 +1°C° 0 mm 1 m/s 764 mmHg 90%
    07:00 +1°C° 0 mm 1 m/s 764 mmHg 90%
    08:00 -1°C° 0 mm 2 m/s 764 mmHg 90%
    09:00 -1°C° 0 mm 2 m/s 765 mmHg 89%
    10:00 -1°C° 0 mm 2 m/s 765 mmHg 86%
    11:00 +1°C° 0 mm 2 m/s 765 mmHg 83%
    12:00 +2°C° 0 mm 2 m/s 765 mmHg 81%
    13:00 +2°C° 0 mm 2 m/s 766 mmHg 81%
    14:00 +2°C° 0 mm 2 m/s 766 mmHg 82%
    15:00 +2°C° 0 mm 2 m/s 766 mmHg 82%
    16:00 +1°C° 0 mm 2 m/s 766 mmHg 84%
    17:00 +1°C° 0 mm 2 m/s 766 mmHg 87%
    18:00 -1°C° 0 mm 2 m/s 766 mmHg 89%
    19:00 -1°C° 0 mm 2 m/s 767 mmHg 89%
    20:00 -1°C° 0 mm 2 m/s 767 mmHg 89%
    21:00 -1°C° 0 mm 2 m/s 767 mmHg 89%
    22:00 -1°C° 0 mm 2 m/s 767 mmHg 89%
    23:00 -1°C° 0 mm 2 m/s 767 mmHg 89%

    16 Dezembro, Domingo

    Tempo Temperatura Precipitação Vento Pressão Humidade
    00:00 -1°C° 0 mm 2 m/s 768 mmHg 89%
    01:00 -2°C° 0 mm 3 m/s 768 mmHg 89%
    02:00 -2°C° 0 mm 3 m/s 768 mmHg 90%
    03:00 -2°C° 0 mm 3 m/s 768 mmHg 90%
    04:00 -2°C° 0 mm 3 m/s 768 mmHg 90%
    05:00 -2°C° 0 mm 3 m/s 768 mmHg 90%
    06:00 -2°C° 0 mm 3 m/s 768 mmHg 90%
    07:00 -2°C° 0 mm 3 m/s 768 mmHg 89%
    08:00 -2°C° 0 mm 3 m/s 768 mmHg 88%
    09:00 -3°C° 0 mm 4 m/s 768 mmHg 87%
    10:00 -3°C° 0 mm 4 m/s 768 mmHg 83%
    11:00 -2°C° 0 mm 4 m/s 768 mmHg 80%
    12:00 -2°C° 0 mm 4 m/s 769 mmHg 76%
    13:00 -1°C° 0 mm 4 m/s 768 mmHg 76%
    14:00 -1°C° 0 mm 4 m/s 768 mmHg 76%
    15:00 -1°C° 0 mm 4 m/s 768 mmHg 75%
    16:00 -2°C° 0 mm 4 m/s 768 mmHg 78%
    17:00 -4°C° 0 mm 5 m/s 768 mmHg 80%
    18:00 -4°C° 0 mm 5 m/s 768 mmHg 82%
    19:00 -4°C° 0 mm 5 m/s 768 mmHg 82%
    20:00 -4°C° 0 mm 5 m/s 768 mmHg 83%
    21:00 -5°C° 0 mm 5 m/s 768 mmHg 83%
    22:00 -5°C° 0 mm 5 m/s 768 mmHg 82%
    23:00 -5°C° 0 mm 5 m/s 768 mmHg 82%
    Mostrar mais